Home > Weather > Bad Oeynhausen > Past weeks

Flag for Germany Weather for the Past 2 Weeks in Bad Oeynhausen, North Rhine-Westphalia, Germany

Now
37 °F

Mostly cloudy.


Feels Like: 30 °F
Forecast: 36 / 38 °F
Wind: 12 mph from East

Location: Bueckeburg

Current Time: Feb 13, 2016 at 8:37:56 PM

Latest Report: Feb 13, 2016 at 7:20 PM


Visibility: N/A

Pressure: 29.18 "Hg

Humidity: 75%

Dew point: 30 °F

Location of Bad OeynhausenLocation

Historic Weather in Bad Oeynhausen — Graph

°F

Bad Oeynhausen Temperature Yesterday

Maximum temperature yesterday: 43 °F (at 2:20 PM)
Minimum temperature yesterday: 28 °F (at 11:20 PM)
Average temperature yesterday: 36 °F

High & Low Weather Summary for the Past Weeks

 TemperatureHumidityPressure
High54 °F (Feb 1, 10:53 AM)100% (Jan 31, 9:20 PM)30.24 "Hg (Jan 31, 9:20 PM)
Low25 °F (Feb 13, 5:20 AM)53% (Feb 13, 1:20 PM)28.80 "Hg (Feb 9, 6:20 PM)
Average43 °F82%29.67 "Hg
* Reported Jan 29 7:20 PM — Feb 13 7:20 PM, Bad Oeynhausen, Weather by CustomWeather, © 2016

Note: Actual official high and low records may vary slightly from our data, if they occured in-between our weather recording intervals... More about our weather records

Advertising

Bad Oeynhausen Weather History for the Previous 24 Hours

 ConditionsComfort  
Time TempWeatherWind HumidityBarometerVisibility
7:20 PM
Sat, Feb 13
37 °FMostly cloudy.12 mph75%29.18 "HgN/A
6:20 PM37 °FPartly cloudy.14 mph75%29.18 "HgN/A
5:20 PM39 °FPartly sunny.13 mph75%29.21 "HgN/A
4:20 PM43 °FPartly sunny.13 mph66%29.21 "HgN/A
3:20 PM45 °FPartly sunny.10 mph57%29.24 "HgN/A
2:20 PM45 °FBroken clouds.8 mph57%29.24 "HgN/A
1:20 PM45 °FBroken clouds.13 mph53%29.27 "HgN/A
12:20 PM43 °FScattered clouds.15 mph57%29.30 "HgN/A
11:20 AM37 °FPassing clouds.7 mph87%29.33 "HgN/A
10:20 AM32 °FPassing clouds.1 mph93%29.36 "HgN/A
9:20 AM28 °FPassing clouds.2 mph93%29.39 "Hg5 mi
8:20 AM25 °FPassing clouds.No wind100%29.39 "Hg5 mi
7:20 AM25 °FPassing clouds.1 mph100%29.39 "HgN/A
6:20 AM25 °FFog.1 mph100%29.39 "HgN/A
5:20 AM25 °FCold.1 mph100%29.42 "HgN/A
4:20 AM27 °FChilly.No wind93%29.42 "HgN/A
3:20 AM28 °FChilly.1 mph93%29.45 "HgN/A
2:20 AM28 °FChilly.1 mph93%29.45 "HgN/A
1:20 AM27 °FChilly.2 mph100%29.45 "HgN/A
12:20 AM28 °FChilly.No wind100%29.47 "HgN/A
11:20 PM
Fri, Feb 12
28 °FChilly.1 mph100%29.47 "HgN/A
10:20 PM30 °FChilly.2 mph93%29.47 "HgN/A
9:20 PM32 °FChilly.1 mph87%29.47 "HgN/A
8:20 PM34 °FChilly.2 mph87%29.47 "HgN/A
Weather by CustomWeather, © 2016

See weather overviewHow to use our weather pages